Карточка аэропорта UWGG

Внимание!
Информация на этой странице в стадии наполнения.
Если вы не увидели какой-то информации, или заметили неточность - пожалуйста сообщите нам!
Спасибо!
Команда RU-STAFF
Название аэропортаСтригино
Название аэропорта (англ.)Strigino
Превышение256 ft. (78 m.)
Координаты56°13.8', 43°47.202'
Высота перехода5000 ft
Эшелон переходаQNH>=1013hPa:FL060; QNH<1013hPa:FL070; QNH<977hPa:FL080
Коды ответчика2120-2147
Зона ОрВДМосква РПИ (UUWV)
Данные METARUWGG 301900Z 00000MPS 4300 BR NSC M17/M19 Q1044 R36R/410050 NOSIG
Проноз погоды (TAF)UWGG 301659Z 3018/0118 16003MPS 4000 BR BKN011 TXM12/0112Z TNM20/0103Z TEMPO 3018/0106 0300 FZFG VV002 BECMG 0106/0108 8000 NSW BKN016
NOTAMshow/hide NOTAM
AWOS   TABLE

Информация о ВПП

ВПП Длина ВПП (м.) Покрытие Курс ВПП Частота ILS
18L3000Цементобетон179108.1
18R2806Асфальтобетон179109.9
36L2806Асфальтобетон359109.5
36R3000Цементобетон359110.5

Диспетчерские позиции

Позывной Наименование органа УВД Частота
UWGG_TWRНижний-Вышка120.400
UWGG_R_APPНижний-Круг120.800
UWGG_APPНижний-Подход124.700
UWGG_GNDНижний-Руление121.800



Спутниковое изображение